Weather Service Report


621 
ASUS43 KFSD 302310
RWRFSD

WEATHER ROUNDUP FOR SE SOUTH DAKOTA/SW MINNESOTA/NW IOWA
NATIONAL WEATHER SERVICE SIOUX FALLS SD
600 PM CDT SAT JUL 30 2016

NOTE: "FAIR" INDICATES FEW OR NO CLOUDS BELOW 12,000 FEET WITH NO
SIGNIFICANT WEATHER AND OR OBSTRUCTIONS TO VISIBILITY.


SDZ038>040-050-052>070-310000-
SOUTHEAST SOUTH DAKOTA
  
CITY           SKY/WX    TMP DP  RH WIND       PRES   REMARKS
BROOKINGS      SUNNY     78  59  51 SE10      29.96F                  
CHAMBERLAIN    MOSUNNY   87  68  53 SE14G20   29.87S                  
HURON          SUNNY     83  59  44 S12       29.89F                  
MADISON        FAIR      75  59  57 S12       29.97S                  
MITCHELL       PTSUNNY   82  62  50 SE15      29.91S                  
SIOUX FALLS    MOSUNNY   79  57  46 SE8       29.95F                  
WINNER         FAIR      88  64  44 S15       29.87F                  
YANKTON        MOSUNNY   81  63  54 SE10      29.92S                  
$$

MNZ071-072-080-081-089-090-097-098-310000-
SOUTHWEST MINNESOTA
  
CITY           SKY/WX    TMP DP  RH WIND       PRES   REMARKS
FAIRMONT       MOSUNNY   77  61  57 SE6       29.98S                  
JACKSON        SUNNY     77  59  53 SE7       29.99F                  
LUVERNE        MOSUNNY   77  55  47 SE6       29.98S                  
MARSHALL       SUNNY     79  58  48 S10       29.97S                  
MONTEVIDEO     SUNNY     79  55  44 S7        29.99S                  
REDWOOD FALLS  SUNNY     80  53  39 S9        29.97S                  
TRACY          SUNNY     79  58  48 S7        29.98S                  
WINDOM         MOSUNNY   79  57  47 SE7       29.98S                  
WORTHINGTON    SUNNY     77  60  55 S7        29.99F                  
$$

IAZ001>003-012>014-020>022-031-032-NEZ013-014-SDZ071-310000-
NORTHWEST IOWA
  
CITY           SKY/WX    TMP DP  RH WIND       PRES   REMARKS
CHEROKEE       MOSUNNY   80  61  51 SE7       29.97S                  
DENISON        MOSUNNY   79  64  61 CALM      29.95S                  
ESTHERVILLE    SUNNY     75  64  68 S5        29.98F                  
LE MARS        SUNNY     81  61  50 SE9       29.96F                  
SHELDON        MOSUNNY   79  59  50 S10       29.96F                  
SIOUX CITY     SUNNY     79  62  56 S7        29.95F                  
SPENCER        MOSUNNY   80  59  48 S7        29.98F                  
STORM LAKE     SUNNY     79  64  61 S7        29.99S                  
$$
 
ABBREVIATIONS USED IN REMARKS
   TC - TEMPERATURE IN CELSIUS
  WCI - WIND CHILL INDEX
   HX - HEAT INDEX
  VSB - VISIBILITY

  


622 
ASUS43 KFSD 302310
RWRSD 

WEATHER ROUNDUP FOR SOUTH DAKOTA
NATIONAL WEATHER SERVICE SIOUX FALLS SD
600 PM CDT SAT JUL 30 2016

NOTE: "FAIR" INDICATES FEW OR NO CLOUDS BELOW 12,000 FEET WITH NO
SIGNIFICANT WEATHER AND/OR OBSTRUCTIONS TO VISIBILITY.


SDZ001>005-009-010-012>017-310000-
NORTHWEST AND NORTH CENTRAL SOUTH DAKOTA
  
CITY           SKY/WX    TMP DP  RH WIND       PRES   REMARKS
BUFFALO          N/A     92  51  24 VRB7      29.75F                  
FAITH            N/A     91  54  28 VRB7G26   29.81F                  
MOBRIDGE       MOSUNNY   90  57  32 S16G25    29.79F                  
$$
 
SDZ012>016-024>037-041>051-057-063-072>074-310000-
SOUTHWEST AND SOUTH CENTRAL SOUTH DAKOTA
  
CITY           SKY/WX    TMP DP  RH WIND       PRES   REMARKS
RAPID CTY ARPT CLOUDY    87  55  33 SE13      29.82S THUNDER          
PIERRE         MOSUNNY   88  59  37 SE16      29.81F                  
CUSTER         SUNNY     83  45  26 SW10      29.99F                  
ELLSWORTH AFB  CLOUDY    90  51  26 SE7       29.81F                  
PHILIP         PTSUNNY   89  63  41 SE10      29.79F                  
PINE RIDGE     SUNNY     90  58  33 S17G24    29.85F                  
WINNER         FAIR      88  64  44 S15       29.87F                  
$$
 
SDZ004>011-016>023-039-040-310000-
NORTHEAST SOUTH DAKOTA
  
CITY           SKY/WX    TMP DP  RH WIND       PRES   REMARKS
ABERDEEN       SUNNY     83  59  44 SE14      29.89F                  
WATERTOWN      MOSUNNY   80  59  48 S13       29.95F                  
BROOKINGS      SUNNY     78  59  51 SE10      29.96F                  
SISSETON         N/A     79  60  52 S12G21    29.92F                  
$$
 
SDZ017-020-022-023-036>040-048>070-310000-
SOUTHEAST SOUTH DAKOTA
  
CITY           SKY/WX    TMP DP  RH WIND       PRES   REMARKS
SIOUX FALLS    MOSUNNY   79  57  46 SE8       29.95F                  
HURON          SUNNY     83  59  44 S12       29.89F                  
CHAMBERLAIN    MOSUNNY   87  68  53 SE14G20   29.87S                  
MITCHELL       PTSUNNY   82  62  50 SE15      29.91S                  
YANKTON        MOSUNNY   81  63  54 SE10      29.92S                  
$$
 
ABBREVIATIONS USED IN REMARKS
   TC - TEMPERATURE IN CELSIUS
  WCI - WIND CHILL INDEX
   HX - HEAT INDEX
  VSB - VISIBILITY

  

Return to Home page


Western Regional Climate Center, wrcc@dri.edu